FW8475 Weather Reports


Display with metric or nautical units.
time (UTC)temp
F
wind
direction
speed
MPH
gust
MPH
rain 1hr
in
rain 24hr
in
rain mn
in
humidity
%
barometer
mb
20260506214016 59 0.0 0.0 0.00 0.90 0.90 98 1011.6
20260506213016 59 0.0 0.0 0.00 0.90 0.90 98 1011.7
20260506212016 59 0.0 0.0 0.00 0.90 0.90 98 1011.8
20260506211016 59 0.0 0.0 0.00 0.90 0.90 98 1011.8
20260506210016 59 0.0 1.0 0.00 0.90 0.90 98 1011.7
20260506205016 59 0.0 1.0 0.00 0.90 0.90 98 1011.6
20260506204016 59 0.0 0.0 0.00 0.90 0.90 98 1011.5
20260506203016 59 0.0 0.0 0.00 0.90 0.90 98 1011.6
20260506202016 59 0.0 0.0 0.00 0.90 0.90 98 1011.5
20260506201016 59 0.0 0.0 0.00 0.90 0.90 98 1011.4
20260506200016 59 0.0 0.0 0.00 0.90 0.90 98 1011.4
20260506195016 59 0.0 0.0 0.12 0.90 0.90 98 1011.2
20260506194016 59 0.0 0.0 0.17 0.91 0.90 98 1011.2
20260506193056 59 0.0 0.0 0.18 0.91 0.90 98 1011.0
20260506192019 60 0.0 0.0 0.20 0.92 0.90 97 1011.1
20260506191016 60 0.0 0.0 0.21 0.92 0.90 97 1011.1
20260506190016 60 0.0 1.0 0.21 0.93 0.90 97 1010.9
20260506185016 60 0.0 1.0 0.09 0.83 0.78 97 1010.9
20260506184016 60 0.0 0.0 0.05 0.78 0.73 97 1010.9
20260506183016 61 0.0 0.0 0.03 0.76 0.72 97 1010.8
20260506182016 61 0.0 0.0 0.01 0.74 0.69 97 1010.8
20260506181016 61 0.0 0.0 0.00 0.73 0.69 97 1010.8
20260506180016 61 0.0 0.0 0.00 0.73 0.69 97 1010.7
20260506175016 61 0.0 0.0 0.00 0.73 0.69 97 1010.9
20260506174016 61 0.0 0.0 0.00 0.74 0.69 97 1010.8
20260506173039 61 0.0 0.0 0.00 0.76 0.69 97 1010.8
20260506172056 61 0.0 0.0 0.00 0.79 0.69 97 1010.6
20260506171016 61 0.0 0.0 0.00 0.80 0.69 97 1010.5
20260506165016 61 0.0 0.0 0.00 0.80 0.69 97 1010.5
20260506164056 61 0.0 0.0 0.00 0.81 0.69 97 1010.7
20260506163016 61 0.0 1.0 0.01 0.81 0.69 97 1010.7
20260506162016 61 0.0 0.0 0.03 0.83 0.69 97 1010.7
20260506161016 61 0.0 1.0 0.10 0.83 0.69 96 1010.5
20260506160016 61 0.0 1.0 0.22 0.83 0.69 96 1010.6
20260506155016 61 0.0 0.0 0.30 0.85 0.69 96 1010.6
20260506154033 61 0.0 1.0 0.39 0.86 0.69 96 1010.5
20260506153016 61 0.0 1.0 0.49 0.87 0.68 95 1010.5
20260506152056 61 0.0 1.0 0.47 0.84 0.65 96 1010.7
20260506151016 61 0.0 1.0 0.40 0.77 0.58 95 1010.7
20260506150016 61 0.0 0.0 0.28 0.66 0.46 95 1010.8
20260506145016 62 225 1.0 2.0 0.20 0.59 0.39 93 1010.6
20260506144016 63 0.0 0.0 0.11 0.50 0.28 91 1010.5
20260506143016 63 0.0 0.0 0.01 0.40 0.19 90 1010.6
20260506142016 64 0.0 0.0 0.01 0.40 0.18 91 1010.7
20260506141015 63 0.0 1.0 0.02 0.41 0.18 91 1010.9
20260506140056 63 0.0 0.0 0.02 0.43 0.18 92 1010.9
20260506135055 62 0.0 0.0 0.02 0.44 0.18 92 1011.0
20260506134016 62 0.0 1.0 0.02 0.45 0.18 92 1011.2
20260506133016 62 0.0 0.0 0.02 0.45 0.18 91 1011.1
20260506132016 62 0.0 0.0 0.01 0.45 0.17 89 1011.2
20260506131016 63 315 1.0 2.0 0.00 0.45 0.17 90 1011.0
20260506130156 63 23 1.0 2.0 0.00 0.45 0.17 90 1011.2
20260506125316 63 293 1.0 1.0 0.00 0.46 0.17 90 1011.2
20260506124316 62 293 1.0 3.0 0.00 0.46 0.17 91 1011.4
20260506123315 62 270 2.0 3.0 0.02 0.46 0.17 92 1011.4
20260506122356 62 293 1.0 3.0 0.02 0.46 0.17 92 1011.4
20260506121316 62 0.0 1.0 0.02 0.46 0.17 91 1011.4
20260506120316 63 0.0 4.0 0.02 0.46 0.17 91 1011.3
20260506115356 63 225 3.0 7.0 0.06 0.46 0.17 94 1011.4
20260506114316 63 0.0 2.0 0.07 0.46 0.17 94 1011.3
20260506113355 63 0.0 1.0 0.06 0.45 0.15 94 1011.3
20260506112316 63 0.0 1.0 0.07 0.46 0.15 94 1011.4
20260506111355 62 0.0 0.0 0.07 0.46 0.15 94 1011.4
20260506110316 62 0.0 1.0 0.06 0.45 0.14 93 1011.4
20260506105315 63 0.0 0.0 0.03 0.42 0.11 93 1011.4
20260506104315 63 0.0 0.0 0.02 0.41 0.09 93 1011.6
20260506103315 63 248 1.0 3.0 0.01 0.41 0.09 92 1011.7
20260506102315 63 0.0 1.0 0.00 0.41 0.08 92 1011.6
20260506101356 63 0.0 1.0 0.00 0.41 0.08 92 1011.7
20260506100316 63 0.0 1.0 0.00 0.41 0.08 91 1011.8
20260506095316 64 248 1.0 2.0 0.00 0.41 0.08 91 1011.8
20260506094316 64 0.0 1.0 0.00 0.41 0.08 91 1011.8
20260506093315 64 0.0 1.0 0.00 0.41 0.08 93 1011.9
20260506092316 63 0.0 0.0 0.00 0.41 0.08 94 1012.0
20260506091355 63 0.0 1.0 0.00 0.41 0.08 95 1011.9
20260506090315 62 0.0 1.0 0.00 0.41 0.08 96 1011.7
20260506085316 61 0.0 1.0 0.01 0.41 0.08 96 1011.6
20260506084356 61 0.0 0.0 0.03 0.41 0.08 96 1011.7
20260506083356 61 0.0 1.0 0.06 0.41 0.08 97 1011.8
20260506082315 60 0.0 1.0 0.06 0.41 0.08 96 1011.6
20260506082016 60 0.0 1.0 0.06 0.41 0.08 97 1011.6
20260506081015 60 0.0 1.0 0.07 0.41 0.08 96 1011.7
20260506073015 60 0.0 1.0 0.02 0.35 0.02 94 1011.6
20260506072016 60 0.0 0.0 0.02 0.35 0.02 93 1011.7
20260506071015 60 0.0 2.0 0.01 0.34 0.01 93 1011.7
20260506062015 60 90 1.0 2.0 0.00 0.33 0.00 94 1011.9
20260506061055 60 90 1.0 3.0 0.00 0.33 0.00 94 1011.7
20260506051015 59 68 2.0 5.0 0.00 0.33 0.00 94 1011.8
20260506045015 58 45 1.0 4.0 0.00 0.33 0.00 94 1011.7
20260506044015 58 68 1.0 3.0 0.00 0.33 0.00 94 1011.7
20260506043055 58 90 1.0 2.0 0.00 0.33 0.00 94 1011.7
20260506042015 57 0.0 1.0 0.00 0.33 0.00 95 1011.7
20260506041055 57 0.0 1.0 0.00 0.33 0.00 95 1011.9
20260506040055 57 45 1.0 2.0 0.00 0.33 0.00 95 1011.8
20260506035015 57 68 1.0 2.0 0.00 0.33 0.00 96 1012.1
20260506034034 57 0.0 0.0 0.00 0.33 0.00 96 1012.1
20260506033055 57 45 1.0 1.0 0.00 0.33 0.00 96 1012.1
20260506032016 57 68 1.0 3.0 0.00 0.33 0.00 96 1012.2
20260506031017 57 0.0 0.0 0.00 0.33 0.00 96 1012.3
20260506030017 57 0.0 0.0 0.00 0.33 0.00 96 1012.2
20260506025017 57 90 1.0 2.0 0.00 0.33 0.00 96 1012.3
20260506024017 57 0.0 1.0 0.00 0.33 0.00 96 1012.4
20260506023017 57 0.0 1.0 0.00 0.33 0.00 96 1012.4
20260506022017 57 0.0 1.0 0.00 0.33 0.00 96 1012.6
20260506021055 57 0.0 1.0 0.00 0.33 0.00 96 1012.6
20260506020018 57 0.0 0.0 0.00 0.33 0.00 96 1012.7
20260506015055 57 0.0 1.0 0.00 0.33 0.00 96 1012.8
20260506014017 57 90 1.0 1.0 0.00 0.33 0.00 96 1012.6
20260506013015 57 0.0 1.0 0.00 0.33 0.00 96 1012.8
20260506012017 57 0.0 1.0 0.00 0.33 0.00 96 1012.7
20260506011017 57 0.0 3.0 0.00 0.33 0.00 96 1012.8
20260506010017 57 0.0 1.0 0.00 0.33 0.00 96 1012.6
20260506005017 57 0.0 1.0 0.00 0.33 0.00 96 1012.6
20260506004057 57 0.0 0.0 0.00 0.33 0.00 96 1012.8
20260506003017 57 0.0 0.0 0.00 0.33 0.00 96 1012.8
20260506002017 57 0.0 0.0 0.00 0.33 0.00 97 1012.9
20260506001017 56 0.0 0.0 0.00 0.33 0.00 96 1012.9
20260506000017 56 0.0 0.0 0.00 0.33 0.00 96 1012.9
20260505235017 57 0.0 0.0 0.00 0.33 0.00 96 1013.1
20260505234017 57 0.0 0.0 0.00 0.33 0.00 96 1013.1
20260505233057 57 0.0 0.0 0.00 0.33 0.00 97 1013.4
20260505232017 57 0.0 0.0 0.00 0.33 0.00 97 1013.6
20260505231057 57 0.0 1.0 0.00 0.33 0.00 97 1013.7
20260505230017 57 0.0 0.0 0.00 0.33 0.00 97 1013.7
20260505225017 57 0.0 1.0 0.00 0.33 0.00 97 1013.8
20260505224017 57 68 1.0 2.0 0.00 0.33 0.00 97 1013.7
20260505223017 57 0.0 0.0 0.00 0.33 0.00 97 1013.7
20260505222017 57 0.0 1.0 0.00 0.33 0.00 97 1013.8
20260505221017 57 0.0 1.0 0.00 0.33 0.00 97 1013.9
20260505220017 57 0.0 1.0 0.00 0.33 0.33 97 1013.9
20260505215016 57 0.0 1.0 0.00 0.33 0.33 97 1014.0